Location: Anumalkud?ru
(16.4847°N, 80.6636°E)
Time: 15:29:59
(UTC+00:00)

Meteor 2-5 Rocket - Pass Details

Date: 11 April 2026
Orbit: 831 x 911 km, 81.2° (Epoch: 11 May)

Event Time Altitude Azimuth Distance (km) Brightness Sun altitude
Rises 14:52:44 0° 349° (N) 3,374 7.2 -28.9°
Reaches altitude 10° 14:55:09 10° 346° (NNW) 2,444 6.5 -29.4°
Maximum altitude 15:00:37 66° 266° (W) 920 3.9 -30.6°
Enters shadow 15:00:39 65° 263° (W) 920 3.9 -30.7°
